Regional Weather Roundup
Issued by NWS

Home | Current Version | Previous Version | Text Only | Print | Product List | Glossary On
Versions: 1 2 3 4 5 6 7 8 9 10 11 12 13 14 15 16 17 18 19 20 21 22 23 24 25 26 27 28 29 30 31 32 33 34 35 36 37 38 39 40 41 42 43 44 45 46 47 48 49 50
000
ASUS45 KREV 222210
RWRNV
NEVADA REGIONAL WEATHER ROUNDUP
NATIONAL WEATHER SERVICE RENO NV
300 PM PDT FRI MAY 22 2015

NOTE: "FAIR" INDICATES FEW OR NO CLOUDS BELOW 12,000 FEET WITH NO
SIGNIFICANT WEATHER AND/OR OBSTRUCTIONS TO VISIBILITY.

NVZ001-003-004-222300-
WESTERN NEVADA

CITY           SKY/WX    TMP DP  RH WIND       PRES   REMARKS
RENO           PTSUNNY   67  40  37 NW9       29.91F
CARSON CITY    CLOUDY    63  37  39 N9        29.93F
MINDEN         FAIR      63  39  42 S3        29.95
SLIDE MTN        N/A     39  36  87 NW1         N/A
PYRAMID LAKE     N/A     61 N/A N/A NE7         N/A
FALLON         TSTM      62  43  49 NW12      29.91S
LOVELOCK       CLOUDY    65  45  48 CALM      29.90S
HAWTHORNE      SUNNY     61  43  51 NW6       29.93
$$

NVZ002-CAZ072-073-222300-
NORTHERN AND CENTRAL SIERRA

CITY           SKY/WX    TMP DP  RH WIND       PRES   REMARKS
S. LAKE TAHOE  PTSUNNY   54  40  59 S12       30.00F
TRUCKEE        DRIZZLE   48  43  81 W12G20    30.01S
SQUAW VLY 8000   N/A     39  36  87 NW12        N/A
BLUE CANYON    CLOUDY    48  45  89 W6        30.04S FOG
MAMMOTH LAKES  PTSUNNY   50  36  57 W8G16     30.00F
BRIDGEPORT     CLOUDY    54  34  46 VRB5      29.96S
$$

NVZ030-031-036-222300-
NORTHERN NEVADA

CITY           SKY/WX    TMP DP  RH WIND       PRES   REMARKS
ELKO           CLOUDY    59  41  51 S16       29.90S
WINNEMUCCA     LGT RAIN  52  48  86 SE10      29.91S
WENDOVER       CLOUDY    64  43  45 SW3       29.87F
$$

NVZ035-037-222300-
CENTRAL NEVADA

CITY           SKY/WX    TMP DP  RH WIND       PRES   REMARKS
ELY            CLOUDY    58  33  39 SW5       29.92F
EUREKA           N/A     60  36  40 N8G20     29.91F
$$

NVZ013-014-222300-
SOUTH CENTRAL NEVADA

CITY           SKY/WX    TMP DP  RH WIND       PRES   REMARKS
TONOPAH        LGT RAIN  52  39  61 E13       29.94R
$$

NVZ017-020-022-222300-
SOUTHERN NEVADA

CITY           SKY/WX    TMP DP  RH WIND       PRES   REMARKS
LAS VEGAS      PTSUNNY   73  37  27 W3        29.78F
N. LAS VEGAS   PTSUNNY   72  33  24 W7        29.81S
NELLIS AFB     PTSUNNY   75  38  26 SW2G16    29.79F
HENDERSON      PTSUNNY   73  36  25 W8        29.85S
MERCURY        CLOUDY    59  43  55 W16       29.89R
$$


USA.gov is the U.S. government's official web portal to all federal, state and local government web resources and services.